When you browse on this site, cookies collect data to enhance your experience and personalize the content and advertising you see.
Visit our Privacy Policy to learn more. By continuing to use the site, you agree to this use of cookies and data.
  • In Österreich
  • Länderverzeichnis
  • Für 7 Tage
  • Wassertemperatur
  • Satellitenkarten
  • Wetterkarte
  • News
  • Widgets
  • user-avatar
    Anmelden

    Stündliche Wetter Ordino

    Heute, 18 Januar, Freitag

    Zeit Temperatur Niederschläge Wind Luftdruck Luftfeuchtigkeit
    00:00 -5°C° 0 mm 2 m/S 629 mmHg 88%
    01:00 -5°C° 0 mm 2 m/S 629 mmHg 89%
    02:00 -6°C° 0 mm 2 m/S 629 mmHg 89%
    03:00 -6°C° 0 mm 2 m/S 629 mmHg 89%
    04:00 -7°C° 0 mm 2 m/S 628 mmHg 88%
    05:00 -7°C° 0 mm 2 m/S 628 mmHg 87%
    06:00 -7°C° 0 mm 2 m/S 628 mmHg 86%
    07:00 -4°C° 0 mm 1 m/S 628 mmHg 81%
    08:00 -3°C° 0 mm 1 m/S 629 mmHg 76%
    09:00 -2°C° 0 mm 1 m/S 629 mmHg 71%
    10:00 -1°C° 0 mm 1 m/S 629 mmHg 66%
    11:00 -2°C° 0 mm 2 m/S 630 mmHg 60%
    12:00 +1°C° 0 mm 2 m/S 630 mmHg 55%
    13:00 -1°C° 0 mm 2 m/S 630 mmHg 58%
    14:00 +1°C° 0 mm 1 m/S 629 mmHg 60%
    15:00 +1°C° 0 mm 1 m/S 629 mmHg 62%
    16:00 0°C° 0 mm 1 m/S 628 mmHg 69%
    17:00 -1°C° 0 mm 1 m/S 628 mmHg 75%
    18:00 -2°C° 0 mm 1 m/S 628 mmHg 82%
    19:00 -2°C° 0 mm 1 m/S 628 mmHg 81%
    20:00 -3°C° 0 mm 1 m/S 628 mmHg 81%
    21:00 -4°C° 0 mm 0 m/S 628 mmHg 80%
    22:00 -3°C° 0 mm 1 m/S 628 mmHg 80%
    23:00 -4°C° 0 mm 1 m/S 628 mmHg 81%

    Morgen, 19 Januar, Samstag

    Zeit Temperatur Niederschläge Wind Luftdruck Luftfeuchtigkeit
    00:00 -4°C° 0 mm 1 m/S 627 mmHg 81%
    01:00 -4°C° 0 mm 1 m/S 627 mmHg 81%
    02:00 -4°C° 0 mm 1 m/S 627 mmHg 80%
    03:00 -4°C° 0 mm 1 m/S 627 mmHg 80%
    04:00 -4°C° 0 mm 1 m/S 627 mmHg 79%
    05:00 -4°C° 0 mm 1 m/S 627 mmHg 78%
    06:00 -4°C° 0 mm 1 m/S 626 mmHg 77%
    07:00 -3°C° 0 mm 1 m/S 627 mmHg 72%
    08:00 -1°C° 0 mm 1 m/S 628 mmHg 67%
    09:00 -1°C° 0 mm 0 m/S 628 mmHg 62%
    10:00 +2°C° 0 mm 1 m/S 629 mmHg 59%
    11:00 +3°C° 0 mm 1 m/S 629 mmHg 55%
    12:00 +3°C° 0 mm 2 m/S 629 mmHg 52%
    13:00 +3°C° 0 mm 2 m/S 628 mmHg 54%
    14:00 +3°C° 0 mm 2 m/S 627 mmHg 55%
    15:00 +2°C° 0 mm 2 m/S 627 mmHg 57%
    16:00 +1°C° 0 mm 2 m/S 626 mmHg 64%
    17:00 -2°C° 0 mm 2 m/S 625 mmHg 72%
    18:00 -3°C° 0 mm 2 m/S 624 mmHg 80%
    19:00 -3°C° 0.2 mm 2 m/S 624 mmHg 82%
    20:00 -3°C° 0.2 mm 2 m/S 624 mmHg 84%
    21:00 -3°C° 0.2 mm 2 m/S 624 mmHg 87%
    22:00 -3°C° 0.2 mm 2 m/S 624 mmHg 88%
    23:00 -3°C° 0.2 mm 2 m/S 624 mmHg 90%

    übermorgen, 20 Januar, Sonntag

    Zeit Temperatur Niederschläge Wind Luftdruck Luftfeuchtigkeit
    00:00 -1°C° 0.2 mm 1 m/S 624 mmHg 91%
    01:00 -1°C° 0.1 mm 1 m/S 624 mmHg 91%
    02:00 -1°C° 0.1 mm 1 m/S 624 mmHg 90%
    03:00 -1°C° 0.1 mm 1 m/S 624 mmHg 89%
    04:00 -1°C° 0.1 mm 1 m/S 624 mmHg 90%
    05:00 -3°C° 0.1 mm 2 m/S 624 mmHg 90%
    06:00 -3°C° 0.1 mm 2 m/S 625 mmHg 91%
    07:00 -2°C° 0.1 mm 2 m/S 625 mmHg 88%
    08:00 -2°C° 0.1 mm 2 m/S 626 mmHg 85%
    09:00 -1°C° 0.1 mm 3 m/S 626 mmHg 82%
    10:00 -1°C° 0.1 mm 3 m/S 627 mmHg 79%
    11:00 0°C° 0.1 mm 3 m/S 627 mmHg 77%
    12:00 0°C° 0.1 mm 3 m/S 627 mmHg 74%
    13:00 0°C° 0.1 mm 3 m/S 627 mmHg 73%
    14:00 0°C° 0.1 mm 3 m/S 627 mmHg 73%
    15:00 -1°C° 0.1 mm 3 m/S 627 mmHg 72%
    16:00 -2°C° 0 mm 3 m/S 627 mmHg 78%
    17:00 -4°C° 0 mm 3 m/S 627 mmHg 83%
    18:00 -5°C° 0 mm 2 m/S 627 mmHg 88%
    19:00 -5°C° 0 mm 2 m/S 627 mmHg 87%
    20:00 -5°C° 0 mm 2 m/S 628 mmHg 87%
    21:00 -5°C° 0 mm 2 m/S 628 mmHg 86%
    22:00 -5°C° 0 mm 2 m/S 628 mmHg 87%
    23:00 -5°C° 0 mm 2 m/S 628 mmHg 87%

    21 Januar, Montag

    Zeit Temperatur Niederschläge Wind Luftdruck Luftfeuchtigkeit
    00:00 -5°C° 0 mm 2 m/S 628 mmHg 88%
    01:00 -4°C° 0.1 mm 2 m/S 628 mmHg 88%
    02:00 -4°C° 0.1 mm 2 m/S 629 mmHg 89%
    03:00 -4°C° 0.1 mm 2 m/S 629 mmHg 89%
    04:00 -4°C° 0.2 mm 2 m/S 629 mmHg 89%
    05:00 -4°C° 0.2 mm 2 m/S 629 mmHg 89%
    06:00 -4°C° 0.2 mm 2 m/S 629 mmHg 89%
    07:00 -4°C° 0.2 mm 3 m/S 629 mmHg 86%
    08:00 -4°C° 0.2 mm 3 m/S 630 mmHg 83%
    09:00 -4°C° 0.2 mm 3 m/S 630 mmHg 80%
    10:00 -2°C° 0.1 mm 3 m/S 631 mmHg 76%
    11:00 -2°C° 0.1 mm 3 m/S 631 mmHg 72%
    12:00 -1°C° 0.1 mm 3 m/S 631 mmHg 68%
    13:00 -2°C° 0 mm 3 m/S 631 mmHg 68%
    14:00 -2°C° 0 mm 3 m/S 630 mmHg 68%
    15:00 -4°C° 0 mm 3 m/S 630 mmHg 68%
    16:00 -5°C° 0 mm 3 m/S 630 mmHg 74%
    17:00 -6°C° 0 mm 3 m/S 629 mmHg 81%
    18:00 -8°C° 0 mm 3 m/S 629 mmHg 87%
    19:00 -7°C° 0 mm 2 m/S 629 mmHg 86%
    20:00 -8°C° 0 mm 2 m/S 629 mmHg 86%
    21:00 -8°C° 0 mm 2 m/S 629 mmHg 85%
    22:00 -8°C° 0 mm 2 m/S 629 mmHg 80%
    23:00 -9°C° 0 mm 2 m/S 629 mmHg 75%

    22 Januar, Dienstag

    Zeit Temperatur Niederschläge Wind Luftdruck Luftfeuchtigkeit
    00:00 -9°C° 0 mm 2 m/S 629 mmHg 71%
    01:00 -9°C° 0 mm 2 m/S 628 mmHg 65%
    02:00 -9°C° 0 mm 2 m/S 628 mmHg 59%
    03:00 -9°C° 0 mm 2 m/S 627 mmHg 53%
    04:00 -9°C° 0 mm 2 m/S 627 mmHg 50%
    05:00 -10°C° 0 mm 2 m/S 626 mmHg 46%
    06:00 -10°C° 0 mm 2 m/S 626 mmHg 43%
    07:00 -8°C° 0 mm 2 m/S 626 mmHg 48%
    08:00 -7°C° 0 mm 2 m/S 626 mmHg 54%
    09:00 -3°C° 0 mm 1 m/S 626 mmHg 59%
    10:00 -2°C° 0.1 mm 1 m/S 625 mmHg 59%
    11:00 0°C° 0.1 mm 1 m/S 625 mmHg 59%
    12:00 +1°C° 0.1 mm 1 m/S 625 mmHg 59%
    13:00 0°C° 0.5 mm 1 m/S 624 mmHg 66%
    14:00 0°C° 0.5 mm 1 m/S 623 mmHg 72%
    15:00 -1°C° 0.5 mm 1 m/S 622 mmHg 78%
    16:00 -5°C° 1.1 mm 3 m/S 621 mmHg 82%
    17:00 -7°C° 1.1 mm 4 m/S 621 mmHg 85%
    18:00 -8°C° 1.1 mm 5 m/S 621 mmHg 88%
    19:00 -10°C° 0.1 mm 5 m/S 621 mmHg 87%
    20:00 -11°C° 0.1 mm 5 m/S 620 mmHg 86%
    21:00 -12°C° 0.1 mm 5 m/S 620 mmHg 85%
    22:00 -12°C° 0.1 mm 5 m/S 620 mmHg 85%
    23:00 -12°C° 0.1 mm 5 m/S 620 mmHg 84%

    23 Januar, Mittwoch

    Zeit Temperatur Niederschläge Wind Luftdruck Luftfeuchtigkeit
    00:00 -12°C° 0.1 mm 5 m/S 620 mmHg 84%
    01:00 -12°C° 0.3 mm 5 m/S 620 mmHg 84%
    02:00 -11°C° 0.3 mm 4 m/S 620 mmHg 85%
    03:00 -11°C° 0.3 mm 4 m/S 620 mmHg 85%
    04:00 -10°C° 0.5 mm 4 m/S 619 mmHg 86%
    05:00 -10°C° 0.5 mm 4 m/S 619 mmHg 88%
    06:00 -10°C° 0.5 mm 4 m/S 619 mmHg 89%
    07:00 -10°C° 0.5 mm 4 m/S 619 mmHg 87%
    08:00 -10°C° 0.5 mm 4 m/S 619 mmHg 85%
    09:00 -9°C° 0.5 mm 4 m/S 619 mmHg 83%
    10:00 -9°C° 0.3 mm 4 m/S 618 mmHg 80%
    11:00 -8°C° 0.3 mm 4 m/S 618 mmHg 77%
    12:00 -8°C° 0.3 mm 4 m/S 618 mmHg 74%
    13:00 -7°C° 0.1 mm 3 m/S 617 mmHg 73%
    14:00 -7°C° 0.1 mm 3 m/S 617 mmHg 72%
    15:00 -6°C° 0.1 mm 2 m/S 616 mmHg 71%
    16:00 -7°C° 0.1 mm 2 m/S 615 mmHg 77%
    17:00 -8°C° 0.1 mm 2 m/S 615 mmHg 83%
    18:00 -8°C° 0.1 mm 1 m/S 614 mmHg 88%
    19:00 -8°C° 0 mm 1 m/S 614 mmHg 88%
    20:00 -10°C° 0 mm 2 m/S 613 mmHg 87%
    21:00 -12°C° 0 mm 2 m/S 613 mmHg 86%
    22:00 -10°C° 0 mm 2 m/S 613 mmHg 86%
    23:00 -10°C° 0 mm 2 m/S 613 mmHg 86%
    Mehr zeigen